Wind_Speed
5 5 4 4 3 3 3 3 3 4 4 5 5 6 6 5 5 6 6 6 6 6 6 6 6 6 6 7 7 8 8 8 8 8 8 8 8 9 9 9 8 9 9
6 6 5 5 4 4 4 4 4 4 4 4 5 6 6 5 5 5 5 6 6 5 6 6 6 6 6 7 8 8 9 9 9 8 8 9 9 10 10 10 10 11 11
7 7 7 6 6 5 5 5 5 5 5 5 5 5 5 6 6 6 6 6 6 6 6 6 6 7 7 8 8 9 10 10 10 9 10 10 11 11 11 11 11 12 12
8 8 8 8 7 7 6 6 6 6 6 6 6 6 6 5 5 6 6 6 7 6 7 7 7 8 8 8 8 9 9 10 10 10 11 11 11 11 11 11 12 13 12
9 9 8 8 8 8 8 7 7 8 8 7 7 7 7 6 6 7 7 7 6 6 7 7 8 8 8 8 9 9 9 10 10 11 11 11 11 11 11 12 12 12 12
9 9 9 9 9 9 9 9 9 9 9 8 8 8 8 8 8 8 8 8 7 8 8 9 9 9 9 9 9 9 9 10 10 11 11 11 11 12 12 12 13 13 13
9 9 10 10 10 10 10 10 10 10 10 10 9 9 9 9 9 9 9 9 9 9 9 9 10 9 9 9 9 9 10 10 11 11 11 11 12 11 12 13 13 14 14
9 9 10 10 11 11 11 10 11 11 11 10 10 11 10 10 9 10 10 10 10 10 10 10 10 10 10 10 10 11 11 10 10 11 11 12 12 12 12 12 13 14 14
9 11 11 12 12 12 11 10 10 11 11 10 10 10 10 10 10 11 11 11 11 11 11 11 11 11 11 12 12 12 12 12 11 11 12 12 12 12 12 12 12 13 13
9 10 10 10 10 10 10 10 11 11 11 11 11 10 10 11 11 11 11 12 12 12 13 13 12 12 12 12 12 13 13 13 13 13 13 13 13 13 13 13 13 13 13
9 9 10 10 9 10 10 11 12 12 12 11 11 11 12 12 12 12 12 12 12 13 13 13 13 13 12 12 13 14 14 14 14 14 14 14 14 14 14 14 14 14 15
10 9 9 9 10 11 12 12 13 13 13 12 12 12 12 13 13 12 12 13 13 14 14 14 14 14 13 13 14 14 14 14 15 14 14 14 15 15 15 15 15 15 15
9 10 9 10 10 11 12 13 14 14 14 13 13 13 13 13 13 13 13 13 13 13 14 14 15 15 15 15 15 15 15 15 16 16 15 15 15 15 16 16 17 17 16
11 11 10 10 11 12 12 14 14 14 15 15 15 14 15 15 15 14 14 14 14 15 15 15 16 16 16 16 16 16 16 16 16 16 16 16 16 16 17 17 17 18 18
13 13 12 11 11 12 12 13 15 15 16 16 16 16 16 16 15 14 15 15 15 16 16 16 17 17 17 18 17 17 17 17 17 17 17 17 17 18 18 18 18 18 18
14 14 14 13 13 13 14 14 14 15 15 16 17 17 18 18 17 16 16 17 17 17 17 17 18 18 18 19 19 19 19 19 19 18 18 18 18 18 18 18 18 18 18
16 15 15 15 15 15 15 15 15 15 16 17 17 18 19 19 19 18 18 19 19 19 18 18 20 20 20 20 20 20 20 20 20 20 19 19 19 19 19 19 19 19 20
17 17 17 16 16 16 16 16 17 17 17 17 18 19 19 20 20 20 20 20 21 21 21 20 21 21 21 22 22 22 22 22 22 22 21 21 21 21 20 20 21 21 21
19 19 18 18 18 17 17 17 18 18 19 19 19 20 20 21 21 22 22 22 22 22 22 22 22 22 22 23 23 23 24 24 24 24 23 23 22 22 22 22 23 23 23
19 19 19 19 18 18 18 18 19 20 21 21 21 21 22 22 22 22 23 23 23 23 23 23 23 23 24 24 25 25 25 25 25 25 24 24 24 24 23 24 24 24 24
19 19 20 20 20 19 19 20 21 21 21 22 22 22 22 22 23 23 24 24 24 24 24 24 24 24 25 25 26 26 26 26 25 25 25 25 25 25 25 25 25 25 25
20 21 21 21 21 21 21 21 22 23 23 23 23 24 24 24 24 24 24 25 25 25 25 26 26 26 26 27 27 27 27 26 26 26 26 26 26 25 25 25 25 25 25
21 22 22 22 22 22 22 22 22 23 23 23 23 23 24 24 23 23 24 25 26 25 25 25 26 26 27 27 27 27 27 28 27 27 27 27 27 27 26 26 26 26 25
22 22 22 22 22 22 22 21 21 21 21 22 22 22 23 23 23 23 24 24 25 25 26 26 26 27 27 28 28 28 28 29 28 28 28 27 27 27 27 27 26 26 26
22 23 23 22 22 23 23 23 23 22 23 23 23 23 23 24 24 24 24 24 25 25 26 27 26 27 27 28 28 29 29 29 29 29 29 28 28 28 27 27 27 27 27
23 23 23 23 23 23 23 23 23 23 24 24 24 24 25 25 25 25 25 25 26 26 26 26 26 26 26 26 27 28 29 29 29 29 29 29 29 29 29 28 28 28 28
Wind_Direction
284 279 273 270 274 281 281 284 288 280 269 265 261 257 250 248 254 257 261 265 265 263 265 268 267 263 261 260 257 252 252 256 255 255 254 257 259 262 259 260 262 264 266
279 275 270 265 265 269 279 288 282 284 288 278 261 253 247 249 252 253 261 261 258 262 266 268 265 264 265 264 260 258 252 254 253 258 260 262 262 260 258 261 267 269 267
276 274 271 262 256 259 265 271 275 275 280 281 267 253 251 250 247 254 264 265 262 263 264 265 267 267 266 267 264 263 257 252 256 258 263 266 264 262 261 263 268 270 271
271 269 269 263 258 257 258 261 264 265 270 269 263 256 257 256 255 262 269 267 264 264 267 268 270 275 273 270 268 269 263 258 260 262 265 270 270 266 266 267 272 273 275
268 264 263 262 260 259 259 259 262 265 263 264 265 263 266 266 267 272 274 273 274 277 276 275 273 276 274 268 268 266 261 261 264 264 266 269 269 268 266 269 273 274 274
267 263 259 258 259 260 261 259 261 264 262 262 262 263 264 265 269 273 273 272 272 277 279 278 275 278 276 273 270 270 269 268 268 270 273 273 271 268 266 270 271 270 272
259 258 256 257 258 258 258 260 263 262 259 260 260 262 264 263 264 268 272 272 273 277 278 274 271 274 274 276 274 273 274 274 275 274 275 277 275 270 269 271 274 273 272
259 256 253 254 260 257 260 261 258 258 258 261 261 259 261 265 263 267 270 269 270 274 278 275 273 273 273 276 277 276 278 277 276 276 277 278 277 275 276 277 277 275 274
265 258 259 258 257 254 255 255 255 257 259 263 265 265 262 261 263 265 267 269 269 273 277 278 278 277 275 276 276 277 276 273 272 274 277 280 281 278 279 279 280 280 278
265 263 264 262 255 251 254 256 256 256 259 263 266 265 263 261 262 265 266 267 270 273 278 277 275 276 277 277 277 277 276 275 274 274 277 280 280 278 279 281 281 280 278
266 265 266 266 262 257 258 259 258 259 262 266 264 263 262 261 263 265 268 269 269 272 275 275 274 275 276 278 279 277 278 276 274 273 275 276 279 279 279 280 282 282 280
272 267 267 268 264 261 263 261 261 260 263 267 265 264 265 266 265 265 268 270 271 273 275 274 272 275 275 277 279 278 278 276 275 274 274 275 276 278 278 279 282 284 283
272 266 269 274 272 271 268 266 267 267 265 264 263 264 267 267 269 266 268 269 272 273 275 276 274 275 275 276 278 278 278 276 276 275 274 276 276 278 279 279 281 281 281
270 271 272 277 278 275 271 269 268 267 268 266 266 267 270 269 269 267 269 270 270 272 275 276 277 276 275 277 277 278 277 276 277 274 273 274 274 276 279 278 279 277 277
269 271 275 275 275 275 274 272 272 269 267 266 268 268 269 268 269 271 270 271 271 270 272 276 278 277 275 275 275 277 276 276 277 276 273 272 274 275 278 278 279 277 273
271 271 271 274 275 276 276 278 278 272 268 267 268 269 270 269 268 270 271 272 272 270 270 272 274 274 274 274 274 274 274 275 277 277 275 274 274 275 277 278 279 278 275
272 272 271 273 275 275 277 278 279 277 272 270 269 269 270 269 269 269 271 273 273 273 272 271 271 271 272 274 274 273 273 274 276 275 276 274 274 273 275 276 277 279 279
269 271 270 271 273 275 277 277 277 276 275 273 272 273 272 269 268 269 271 274 274 274 274 273 271 270 271 273 273 274 274 274 274 273 273 274 274 273 273 273 275 278 279
266 268 269 271 272 274 275 276 275 274 274 274 273 273 273 271 270 271 272 273 274 275 275 274 273 272 271 272 273 274 273 273 273 273 272 272 273 273 273 272 273 274 275
267 267 268 269 271 272 273 276 277 275 272 272 272 273 273 273 273 273 274 274 274 275 275 275 275 274 273 272 273 274 273 273 273 272 271 272 273 274 274 273 273 274 275
267 267 270 272 273 273 274 276 276 275 275 273 273 273 273 273 274 274 275 274 274 276 277 277 277 276 275 274 274 274 274 274 272 271 271 272 274 274 274 274 275 276 276
270 270 270 273 272 273 275 276 275 276 276 275 275 275 275 275 274 274 275 276 275 277 277 277 277 277 276 275 274 274 273 273 272 271 271 272 274 275 274 274 275 276 275
272 272 271 270 271 272 273 275 276 277 276 275 275 275 275 276 276 275 275 276 278 279 279 278 277 277 277 275 274 275 275 273 271 270 270 271 272 274 274 274 275 275 275
273 273 273 271 270 271 272 273 274 276 276 275 276 275 275 275 276 276 276 276 278 280 280 280 279 279 278 276 275 275 275 272 271 271 271 272 273 273 271 273 274 274 274
273 273 273 272 271 271 272 273 274 275 276 275 275 274 273 274 275 276 278 280 280 280 280 279 279 279 279 277 276 275 275 274 272 273 272 272 272 272 271 272 273 273 274
272 273 272 272 272 272 271 271 273 275 276 277 277 275 275 276 277 277 278 280 281 281 280 280 279 281 282 280 279 278 277 276 274 273 272 272 271 270 272 272 272 273 274
Height
5865 5865 5865 5865 5865 5865 5865 5865 5865 5865 5865 5865 5866 5866 5867 5867 5868 5868 5868 5869 5869 5869 5869 5869 5869 5869 5869 5869 5869 5869 5870 5870 5871 5871 5871 5871 5871 5872 5872 5873 5873 5873 5873
5863 5864 5864 5864 5864 5864 5864 5864 5864 5864 5864 5864 5864 5865 5865 5866 5867 5867 5867 5867 5867 5867 5867 5867 5867 5867 5867 5867 5867 5868 5868 5868 5869 5869 5869 5869 5869 5869 5870 5870 5871 5871 5871
5862 5862 5862 5862 5863 5863 5863 5863 5863 5863 5863 5863 5863 5864 5864 5865 5865 5865 5866 5866 5866 5866 5866 5866 5866 5866 5866 5865 5865 5865 5866 5866 5867 5867 5867 5867 5867 5868 5868 5868 5868 5868 5868
5860 5860 5860 5861 5861 5861 5861 5862 5862 5862 5862 5862 5862 5862 5863 5863 5864 5864 5864 5864 5864 5864 5864 5864 5864 5864 5864 5864 5864 5863 5864 5864 5865 5865 5865 5865 5865 5865 5865 5866 5866 5866 5866
5857 5858 5858 5859 5859 5859 5859 5860 5860 5860 5860 5860 5860 5861 5861 5862 5862 5862 5862 5862 5862 5862 5862 5863 5862 5862 5862 5862 5862 5861 5861 5862 5862 5862 5862 5863 5862 5863 5863 5863 5863 5863 5863
5855 5855 5856 5856 5857 5857 5857 5857 5858 5858 5858 5858 5859 5859 5860 5860 5860 5860 5861 5861 5861 5861 5861 5861 5860 5860 5860 5860 5859 5859 5859 5859 5860 5860 5860 5860 5859 5859 5860 5860 5860 5860 5860
5852 5853 5854 5854 5854 5855 5855 5855 5855 5856 5856 5856 5857 5857 5857 5858 5858 5858 5858 5858 5858 5859 5858 5858 5858 5858 5858 5857 5857 5857 5857 5857 5857 5857 5857 5857 5857 5857 5857 5857 5857 5857 5857
5850 5850 5851 5851 5851 5852 5852 5852 5853 5853 5854 5854 5854 5854 5855 5856 5855 5856 5856 5856 5856 5856 5856 5856 5856 5855 5855 5855 5855 5855 5855 5855 5855 5855 5854 5854 5854 5854 5854 5854 5854 5854 5853
5847 5848 5848 5848 5848 5849 5849 5850 5850 5850 5851 5851 5851 5852 5852 5852 5853 5853 5853 5853 5853 5853 5853 5853 5853 5853 5853 5853 5853 5853 5852 5852 5852 5852 5852 5851 5851 5851 5851 5851 5851 5850 5850
5845 5845 5845 5845 5845 5845 5846 5846 5847 5847 5848 5848 5848 5848 5849 5849 5849 5850 5850 5850 5850 5850 5850 5850 5850 5850 5850 5850 5850 5850 5849 5849 5849 5849 5849 5849 5848 5848 5848 5848 5848 5847 5847
5842 5843 5843 5842 5842 5842 5843 5843 5844 5844 5844 5844 5844 5845 5845 5846 5846 5846 5847 5847 5847 5847 5847 5847 5847 5847 5846 5846 5846 5846 5846 5846 5846 5846 5846 5845 5845 5845 5845 5844 5844 5844 5843
5840 5840 5840 5840 5840 5840 5840 5840 5840 5841 5841 5841 5842 5842 5842 5842 5843 5843 5843 5843 5843 5843 5843 5843 5843 5843 5843 5843 5842 5842 5842 5842 5842 5842 5842 5842 5841 5841 5841 5840 5840 5839 5839
5838 5838 5838 5838 5837 5837 5837 5837 5837 5837 5838 5838 5839 5839 5839 5839 5839 5839 5840 5840 5839 5839 5839 5839 5839 5839 5839 5839 5839 5838 5838 5838 5838 5838 5838 5838 5837 5837 5837 5836 5836 5836 5835
5835 5835 5835 5835 5834 5834 5834 5834 5833 5834 5834 5835 5835 5835 5836 5835 5835 5836 5836 5836 5836 5836 5835 5835 5835 5835 5835 5835 5835 5834 5834 5834 5834 5834 5833 5833 5833 5833 5832 5832 5831 5831 5830
5832 5832 5832 5832 5831 5831 5831 5830 5830 5830 5830 5831 5831 5831 5832 5831 5831 5832 5832 5832 5832 5832 5832 5831 5831 5830 5830 5830 5830 5830 5830 5829 5829 5829 5829 5829 5828 5828 5827 5827 5826 5825 5825
5828 5828 5828 5828 5828 5827 5827 5827 5826 5826 5826 5826 5827 5827 5827 5827 5827 5827 5827 5827 5827 5827 5827 5827 5826 5826 5825 5825 5825 5825 5825 5825 5824 5824 5824 5824 5823 5823 5822 5822 5821 5821 5820
5823 5824 5824 5824 5824 5824 5823 5823 5822 5822 5822 5822 5822 5822 5822 5822 5822 5822 5822 5822 5822 5822 5822 5822 5821 5821 5820 5820 5820 5820 5819 5819 5819 5819 5819 5818 5818 5817 5817 5817 5816 5816 5815
5819 5819 5820 5820 5819 5819 5819 5818 5818 5817 5817 5817 5817 5817 5817 5817 5817 5817 5817 5817 5816 5816 5816 5816 5816 5815 5815 5815 5814 5814 5814 5814 5814 5813 5813 5813 5812 5812 5811 5811 5810 5810 5809
5814 5815 5815 5815 5815 5814 5814 5813 5813 5812 5812 5812 5812 5812 5812 5812 5812 5811 5811 5811 5810 5810 5810 5810 5810 5809 5809 5809 5808 5808 5808 5807 5807 5807 5807 5806 5806 5806 5805 5805 5804 5804 5803
5809 5809 5809 5809 5809 5809 5809 5808 5807 5807 5807 5807 5807 5806 5806 5806 5806 5805 5805 5804 5804 5803 5803 5803 5803 5803 5803 5802 5802 5801 5801 5801 5800 5800 5800 5799 5799 5799 5798 5798 5798 5797 5796
5803 5803 5804 5803 5803 5803 5803 5802 5801 5801 5801 5801 5801 5800 5800 5800 5799 5799 5798 5798 5797 5797 5796 5796 5796 5796 5796 5795 5794 5794 5794 5793 5793 5793 5792 5792 5792 5791 5790 5790 5790 5789 5789
5797 5797 5797 5797 5797 5797 5797 5796 5795 5795 5795 5794 5794 5794 5793 5793 5792 5792 5791 5791 5790 5790 5789 5788 5788 5788 5788 5787 5786 5786 5786 5786 5786 5786 5785 5785 5784 5783 5783 5782 5782 5781 5781
5791 5791 5791 5791 5791 5790 5790 5789 5789 5788 5788 5788 5787 5787 5787 5786 5785 5785 5784 5783 5783 5782 5782 5781 5781 5780 5780 5779 5778 5778 5777 5777 5778 5778 5777 5777 5776 5775 5775 5774 5774 5773 5773
5784 5784 5784 5784 5784 5784 5783 5783 5782 5781 5781 5780 5780 5780 5780 5779 5778 5777 5777 5776 5775 5775 5774 5773 5773 5773 5772 5771 5770 5770 5769 5769 5769 5768 5768 5768 5767 5767 5766 5766 5765 5765 5764
5777 5777 5777 5777 5777 5777 5776 5776 5775 5775 5774 5773 5773 5772 5772 5772 5771 5770 5770 5769 5768 5768 5766 5766 5765 5764 5763 5762 5761 5761 5760 5759 5760 5760 5759 5759 5759 5758 5758 5757 5756 5756 5755
5770 5769 5769 5769 5769 5769 5769 5769 5768 5768 5767 5766 5766 5765 5764 5764 5763 5763 5762 5762 5761 5760 5759 5758 5757 5756 5755 5753 5752 5751 5751 5750 5750 5750 5750 5750 5749 5749 5749 5749 5748 5747 5747